Meteoalarm - Portugal e Ilhas:

Avisos Meteorológicos para Portugal e Ilhas


Visite-nos no Facebook:

Visite-nos no Facebook


Madeira Webcams:


Grupo MeteoRAM Facebook:

Junte-se ao melhor e mais completo grupo de Meteorologia da Região Autónoma da Madeira



Temperatura máxima extrema de: 25-09-2018 07:13 até: 21:59 aviso para: Temperatura máxima extrema  nível: Amarelo info button

Weather Underground Histórico da Estação

Diário Resumo para Setembro 25, 2018 Unidades:  Métrico    Inglês   Ambos
« Anterior Dia
Seguinte Dia »
Diário Semanal Mensal Anual Personalizado
  Atualmente: Alto: Baixo: Média:
Temperatura: 23 °C -17.8 °C 22.4 °C 22.3 °C
Ponto de orvalho: 18.3 °C -17.8 °C 16.3 °C 16.8 °C
Humidade: 75 % Humidity % 67 % 70 %
Velocidade do Vento: 8.7 km/h 0 km/h 2.6 km/h 6.6 km/h
Rajada de vento: 17.2 km/h 0 km/h - -
Vento:North - - NW
Pressão Atmosférica: 1019.2 hPa 0 hPa 1017.8 hPa -
Precipitação: 0 mm      
Historical Graphs
 
 
Dados Tabulares para Setembro 25, 2018
Hora Temperatura Ponto de orvalho Pressão Atmosférica Vento Velocidade do Vento Rajada de vento Humidade Taxa de Precipitação (Por hora)
-17.8 °C -17.8 °C 0 hPa Calm     Humidity % 0 mm
00:04 22.6 °C 17.3 °C 1020.5 hPa NNW 6.1 km/h 17.2 km/h 72 % 0 mm
00:09 22.6 °C 17.3 °C 1020.5 hPa NW 6.1 km/h 14.8 km/h 72 % 0 mm
00:14 22.6 °C 17.6 °C 1020.5 hPa NW 11.1 km/h 15.8 km/h 73 % 0 mm
00:19 22.6 °C 17.3 °C 1020.5 hPa NNW 7.2 km/h 15.8 km/h 72 % 0 mm
00:24 22.5 °C 17.2 °C 1020.5 hPa NNW 8.7 km/h 15.8 km/h 72 % 0 mm
00:29 22.5 °C 17.2 °C 1020.5 hPa NNW 5 km/h 13.4 km/h 72 % 0 mm
00:34 22.5 °C 17.2 °C 1020.2 hPa NNW 6.1 km/h 18.3 km/h 72 % 0 mm
00:39 22.5 °C 17.2 °C 1020.2 hPa North 6.1 km/h 19.5 km/h 72 % 0 mm
00:44 22.5 °C 17 °C 1020.2 hPa North 5 km/h 19.5 km/h 71 % 0 mm
00:49 22.5 °C 17.2 °C 1020.2 hPa North 6.1 km/h 18.3 km/h 72 % 0 mm
00:54 22.5 °C 17 °C 1020.2 hPa NNW 6.1 km/h 18.3 km/h 71 % 0 mm
00:59 22.5 °C 17 °C 1020.2 hPa NW 5 km/h 15.8 km/h 71 % 0 mm
01:04 22.5 °C 17.2 °C 1020.2 hPa North 6.1 km/h 17.2 km/h 72 % 0 mm
01:09 22.5 °C 17 °C 1020.2 hPa North 3.5 km/h 17.2 km/h 71 % 0 mm
01:14 22.5 °C 17 °C 1019.9 hPa North 5 km/h 14.8 km/h 71 % 0 mm
01:19 22.6 °C 17.3 °C 1019.9 hPa NNW 12.2 km/h 21.9 km/h 72 % 0 mm
01:24 22.6 °C 17.3 °C 1019.9 hPa North 7.2 km/h 21.9 km/h 72 % 0 mm
01:29 22.6 °C 17.3 °C 1019.9 hPa North 6.1 km/h 19.5 km/h 72 % 0 mm
01:34 22.6 °C 17.3 °C 1019.9 hPa NNW 8.7 km/h 19.5 km/h 72 % 0 mm
01:39 22.6 °C 17.6 °C 1019.9 hPa NNW 11.1 km/h 19.5 km/h 73 % 0 mm
01:44 22.6 °C 17.6 °C 1019.9 hPa NW 9.7 km/h 20.9 km/h 73 % 0 mm
01:49 22.6 °C 17.6 °C 1019.9 hPa North 9.7 km/h 25.6 km/h 73 % 0 mm
01:54 22.5 °C 17.4 °C 1019.9 hPa North 6.1 km/h 25.6 km/h 73 % 0 mm
01:59 22.5 °C 17.4 °C 1019.5 hPa North 5 km/h 25.6 km/h 73 % 0 mm
02:04 22.5 °C 17.2 °C 1019.5 hPa North 7.2 km/h 13.4 km/h 72 % 0 mm
02:09 22.5 °C 17.2 °C 1019.5 hPa NW 7.2 km/h 24.5 km/h 72 % 0 mm
02:14 22.5 °C 17.2 °C 1019.5 hPa NW 2.6 km/h 24.5 km/h 72 % 0 mm
02:19 22.5 °C 17.2 °C 1019.5 hPa NNW 5 km/h 17.2 km/h 72 % 0 mm
02:24 22.5 °C 17 °C 1019.5 hPa NNW 11.1 km/h 18.3 km/h 71 % 0 mm
02:29 22.6 °C 17.3 °C 1019.5 hPa North 8.7 km/h 19.5 km/h 72 % 0 mm
02:34 22.6 °C 17.1 °C 1019.5 hPa North 7.2 km/h 20.9 km/h 71 % 0 mm
02:39 22.6 °C 17.3 °C 1019.5 hPa NNW 9.7 km/h 20.9 km/h 72 % 0 mm
02:44 22.6 °C 17.3 °C 1019.2 hPa NNW 6.1 km/h 17.2 km/h 72 % 0 mm
02:49 22.6 °C 17.3 °C 1019.2 hPa NNW 11.1 km/h 20.9 km/h 72 % 0 mm
02:54 22.6 °C 17.6 °C 1019.2 hPa NNW 2.6 km/h 20.9 km/h 73 % 0 mm
02:59 22.6 °C 17.6 °C 1019.5 hPa NNW 9.7 km/h 23.3 km/h 73 % 0 mm
03:04 22.6 °C 17.6 °C 1019.2 hPa NNW 11.1 km/h 23.3 km/h 73 % 0 mm
03:09 22.5 °C 17.2 °C 1019.2 hPa NNW 7.2 km/h 19.5 km/h 72 % 0 mm
03:14 22.5 °C 17.2 °C 1019.2 hPa NNW 3.5 km/h 17.2 km/h 72 % 0 mm
03:19 22.5 °C 17.2 °C 1019.2 hPa NW 8.7 km/h 15.8 km/h 72 % 0 mm
03:24 22.5 °C 17.2 °C 1018.8 hPa NW 8.7 km/h 17.2 km/h 72 % 0 mm
03:29 22.5 °C 17.2 °C 1019.2 hPa NW 6.1 km/h 17.2 km/h 72 % 0 mm
03:34 22.5 °C 17.2 °C 1019.2 hPa NNW 8.7 km/h 14.8 km/h 72 % 0 mm
03:39 22.5 °C 17.2 °C 1018.8 hPa North 7.2 km/h 23.3 km/h 72 % 0 mm
03:44 22.5 °C 17 °C 1018.8 hPa North 9.7 km/h 23.3 km/h 71 % 0 mm
03:49 22.5 °C 17 °C 1018.8 hPa North 8.7 km/h 20.9 km/h 71 % 0 mm
03:54 22.5 °C 17 °C 1018.8 hPa North 6.1 km/h 20.9 km/h 71 % 0 mm
03:59 22.4 °C 16.9 °C 1018.8 hPa NNW 12.2 km/h 19.5 km/h 71 % 0 mm
04:04 22.4 °C 16.9 °C 1018.8 hPa NNW 7.2 km/h 19.5 km/h 71 % 0 mm
04:09 22.5 °C 16.8 °C 1018.8 hPa NW 6.1 km/h 19.5 km/h 70 % 0 mm
04:14 22.5 °C 16.8 °C 1018.5 hPa NW 8.7 km/h 18.3 km/h 70 % 0 mm
04:19 22.5 °C 16.8 °C 1018.5 hPa NW 5 km/h 20.9 km/h 70 % 0 mm
04:24 22.5 °C 16.6 °C 1018.5 hPa NW 9.7 km/h 20.9 km/h 69 % 0 mm
04:29 22.5 °C 16.6 °C 1018.2 hPa NW 6.1 km/h 17.2 km/h 69 % 0 mm
04:34 22.5 °C 16.3 °C 1018.2 hPa NW 7.2 km/h 17.2 km/h 68 % 0 mm
04:39 22.6 °C 16.4 °C 1018.2 hPa NW 5 km/h 15.8 km/h 68 % 0 mm
04:44 22.6 °C 16.4 °C 1018.2 hPa NW 7.2 km/h 15.8 km/h 68 % 0 mm
04:49 22.6 °C 16.4 °C 1018.2 hPa NNW 5 km/h 15.8 km/h 68 % 0 mm
04:54 22.7 °C 16.3 °C 1018.2 hPa NW 8.7 km/h 15.8 km/h 67 % 0 mm
04:59 22.7 °C 16.3 °C 1018.2 hPa NNW 11.1 km/h 19.5 km/h 67 % 0 mm
05:04 22.7 °C 16.3 °C 1018.2 hPa NW 6.1 km/h 19.5 km/h 67 % 0 mm
05:09 22.7 °C 16.3 °C 1018.2 hPa NNW 5 km/h 19.5 km/h 67 % 0 mm
05:14 22.7 °C 16.5 °C 1018.2 hPa NNW 7.2 km/h 24.5 km/h 68 % 0 mm
05:19 22.7 °C 16.5 °C 1018.2 hPa NNW 3.5 km/h 24.5 km/h 68 % 0 mm
05:24 22.6 °C 16.4 °C 1018.2 hPa NW 6.1 km/h 14.8 km/h 68 % 0 mm
05:29 22.6 °C 16.7 °C 1018.2 hPa NW 5 km/h 14.8 km/h 69 % 0 mm
05:34 22.6 °C 16.4 °C 1017.8 hPa WNW 7.2 km/h 14.8 km/h 68 % 0 mm
05:39 22.6 °C 16.4 °C 1017.8 hPa WNW 8.7 km/h 17.2 km/h 68 % 0 mm
05:44 22.6 °C 16.4 °C 1018.2 hPa NW 8.7 km/h 17.2 km/h 68 % 0 mm
05:49 22.6 °C 16.7 °C 1017.8 hPa NW 5 km/h 15.8 km/h 69 % 0 mm
05:54 22.6 °C 16.4 °C 1018.2 hPa NW 6.1 km/h 14.8 km/h 68 % 0 mm
05:59 22.6 °C 16.7 °C 1018.2 hPa NNW 5 km/h 12.2 km/h 69 % 0 mm
06:04 22.6 °C 16.7 °C 1018.2 hPa NW 8.7 km/h 20.9 km/h 69 % 0 mm
06:09 22.6 °C 16.7 °C 1018.2 hPa NNW 8.7 km/h 20.9 km/h 69 % 0 mm
06:14 22.6 °C 16.7 °C 1018.2 hPa NNW 5 km/h 20.9 km/h 69 % 0 mm
06:19 22.6 °C 16.7 °C 1018.2 hPa NW 2.6 km/h 18.3 km/h 69 % 0 mm
06:24 22.6 °C 16.7 °C 1018.2 hPa WNW 5 km/h 18.3 km/h 69 % 0 mm
06:29 22.6 °C 16.7 °C 1018.2 hPa WNW 7.2 km/h 14.8 km/h 69 % 0 mm
06:34 22.7 °C 16.7 °C 1018.2 hPa NW 3.5 km/h 14.8 km/h 69 % 0 mm
06:39 22.7 °C 16.7 °C 1018.2 hPa NW 6.1 km/h 18.3 km/h 69 % 0 mm
06:44 22.7 °C 16.7 °C 1018.2 hPa NW 8.7 km/h 18.3 km/h 69 % 0 mm
06:49 22.7 °C 16.7 °C 1018.2 hPa NW 2.6 km/h 15.8 km/h 69 % 0 mm
06:54 22.7 °C 16.9 °C 1018.2 hPa NNW 5 km/h 19.5 km/h 70 % 0 mm
06:59 22.7 °C 16.9 °C 1018.2 hPa NW 7.2 km/h 20.9 km/h 70 % 0 mm
07:04 22.7 °C 16.9 °C 1018.2 hPa WNW 5 km/h 20.9 km/h 70 % 0 mm
07:09 22.7 °C 16.9 °C 1018.2 hPa NW 6.1 km/h 17.2 km/h 70 % 0 mm
07:14 22.7 °C 17.2 °C 1018.2 hPa NW 7.2 km/h 17.2 km/h 71 % 0 mm
07:19 22.7 °C 17.4 °C 1018.2 hPa NW 6.1 km/h 17.2 km/h 72 % 0 mm
07:24 22.6 °C 17.3 °C 1018.5 hPa NW 3.5 km/h 15.8 km/h 72 % 0 mm
07:29 22.6 °C 17.1 °C 1018.5 hPa NW 7.2 km/h 14.8 km/h 71 % 0 mm
07:34 22.5 °C 17 °C 1018.5 hPa NW 9.7 km/h 15.8 km/h 71 % 0 mm
07:39 22.5 °C 16.8 °C 1018.5 hPa NW 5 km/h 15.8 km/h 70 % 0 mm
07:44 22.5 °C 16.8 °C 1018.5 hPa NW 2.6 km/h 14.8 km/h 70 % 0 mm
07:49 22.5 °C 16.8 °C 1018.8 hPa NW 2.6 km/h 11.1 km/h 70 % 0 mm
07:54 22.5 °C 16.8 °C 1018.5 hPa NNW 2.6 km/h 19.5 km/h 70 % 0 mm
07:59 22.6 °C 16.7 °C 1018.8 hPa NNW 7.2 km/h 19.5 km/h 69 % 0 mm
08:04 22.7 °C 16.7 °C 1018.8 hPa NNW 7.2 km/h 17.2 km/h 69 % 0 mm
08:09 22.7 °C 16.9 °C 1018.8 hPa North 6.1 km/h 17.2 km/h 70 % 0 mm
08:14 22.8 °C 17.1 °C 1018.5 hPa North 5 km/h 17.2 km/h 70 % 0 mm
08:19 22.8 °C 17.3 °C 1018.8 hPa NNW 7.2 km/h 12.2 km/h 71 % 0 mm
08:24 22.8 °C 17.3 °C 1018.8 hPa NNW 6.1 km/h 13.4 km/h 71 % 0 mm
08:29 22.8 °C 17.3 °C 1018.8 hPa NW 3.5 km/h 19.5 km/h 71 % 0 mm
08:34 22.7 °C 16.9 °C 1018.8 hPa NW 6.1 km/h 19.5 km/h 70 % 0 mm
08:39 22.7 °C 16.9 °C 1018.5 hPa NW 2.6 km/h 13.4 km/h 70 % 0 mm
08:44 22.8 °C 17.3 °C 1018.8 hPa NNW 7.2 km/h 13.4 km/h 71 % 0 mm
08:49 22.8 °C 17.3 °C 1018.8 hPa NNW 8.7 km/h 13.4 km/h 71 % 0 mm
08:54 22.8 °C 17.3 °C 1018.8 hPa NNW 6.1 km/h 14.8 km/h 71 % 0 mm
08:59 22.9 °C 17.4 °C 1018.8 hPa NNW 7.2 km/h 14.8 km/h 71 % 0 mm
09:04 22.9 °C 17.4 °C 1018.8 hPa NNW 2.6 km/h 14.8 km/h 71 % 0 mm
09:09 23 °C 17.7 °C 1018.8 hPa NNW 6.1 km/h 15.8 km/h 72 % 0 mm
09:14 23 °C 17.9 °C 1018.8 hPa North 3.5 km/h 15.8 km/h 73 % 0 mm
09:19 23 °C 17.9 °C 1018.8 hPa North 5 km/h 15.8 km/h 73 % 0 mm
09:24 23 °C 18.1 °C 1018.8 hPa North 12.2 km/h 19.5 km/h 74 % 0 mm
09:29 23 °C 18.1 °C 1019.2 hPa North 8.7 km/h 19.5 km/h 74 % 0 mm
09:34 23.1 °C 18.4 °C 1019.2 hPa North 7.2 km/h 19.5 km/h 75 % 0 mm
09:39 23 °C 18.3 °C 1019.2 hPa North 8.7 km/h 17.2 km/h 75 % 0 mm
MeteoMachico
Cumprimentos de Weather Underground - 2 mb

Script original por  Jim McMurry - jmcmurry@mwt.net Adaptado para o modelo por  Wim van der Kuil - Leuven-Template.eu

Equipamento que usamos:

Estação Meteorológica
Weatherwise ws-1080

IPCAM
Dericam H502W

Servidor
Digital Ocean

Weatherwise ws-1080

Dericam H502W

Digital Ocean